Year,Month,Day,Hour,Minute,Value (Times are PST for temperature in C)
2006,08,27,00,00,16.40
2006,08,27,00,01,16.40
2006,08,27,00,02,16.30
2006,08,27,00,03,16.30
2006,08,27,00,04,16.30
2006,08,27,00,05,16.20
2006,08,27,00,06,16.20
2006,08,27,00,07,16.20
2006,08,27,00,08,16.10
2006,08,27,00,09,16.10
2006,08,27,00,10,16.10
2006,08,27,00,11,16.10
2006,08,27,00,12,16.10
2006,08,27,00,13,16.00
2006,08,27,00,14,15.90
2006,08,27,00,15,15.90
2006,08,27,00,16,15.90
2006,08,27,00,17,15.90
2006,08,27,00,18,15.80
2006,08,27,00,19,15.80
2006,08,27,00,20,15.80
2006,08,27,00,21,15.80
2006,08,27,00,22,15.80
2006,08,27,00,23,15.80
2006,08,27,00,24,15.80
2006,08,27,00,25,15.80
2006,08,27,00,26,15.80
2006,08,27,00,27,15.80
2006,08,27,00,28,15.80
2006,08,27,00,29,15.80
2006,08,27,00,30,15.80
2006,08,27,00,31,15.80
2006,08,27,00,32,15.80
2006,08,27,00,33,15.80
2006,08,27,00,34,15.80
2006,08,27,00,35,15.80
2006,08,27,00,36,15.70
2006,08,27,00,37,15.70
2006,08,27,00,38,15.70
2006,08,27,00,39,15.70
2006,08,27,00,40,15.70
2006,08,27,00,41,15.70
2006,08,27,00,42,15.70
2006,08,27,00,43,15.70
2006,08,27,00,44,15.80
2006,08,27,00,45,15.80
2006,08,27,00,46,15.80
2006,08,27,00,47,15.80
2006,08,27,00,48,15.80
2006,08,27,00,49,15.80
2006,08,27,00,50,15.80
2006,08,27,00,51,15.80
2006,08,27,00,52,15.80
2006,08,27,00,53,15.80
2006,08,27,00,54,15.80
2006,08,27,00,55,15.80
2006,08,27,00,56,15.80
2006,08,27,00,57,15.80
2006,08,27,00,58,15.80
2006,08,27,00,59,15.80
2006,08,27,01,00,15.80
2006,08,27,01,01,15.80
2006,08,27,01,02,15.70
2006,08,27,01,03,15.70
2006,08,27,01,04,15.70
2006,08,27,01,05,15.70
2006,08,27,01,06,15.70
2006,08,27,01,07,15.60
2006,08,27,01,08,15.60
2006,08,27,01,09,15.60
2006,08,27,01,10,15.50
2006,08,27,01,11,15.50
2006,08,27,01,12,15.40
2006,08,27,01,13,15.40
2006,08,27,01,14,15.30
2006,08,27,01,15,15.30
2006,08,27,01,16,15.30
2006,08,27,01,17,15.30
2006,08,27,01,18,15.30
2006,08,27,01,19,15.30
2006,08,27,01,20,15.20
2006,08,27,01,21,15.20
2006,08,27,01,22,15.20
2006,08,27,01,23,15.20
2006,08,27,01,24,15.10
2006,08,27,01,25,15.10
2006,08,27,01,26,15.10
2006,08,27,01,27,15.10
2006,08,27,01,28,15.10
2006,08,27,01,29,15.00
2006,08,27,01,30,15.00
2006,08,27,01,31,15.00
2006,08,27,01,32,15.00
2006,08,27,01,33,15.00
2006,08,27,01,34,14.90
2006,08,27,01,35,14.90
2006,08,27,01,36,14.90
2006,08,27,01,37,14.90
2006,08,27,01,38,14.80
2006,08,27,01,39,14.80
2006,08,27,01,40,14.80
2006,08,27,01,41,14.80
2006,08,27,01,42,14.80
2006,08,27,01,43,14.80
2006,08,27,01,44,14.70
2006,08,27,01,45,14.70
2006,08,27,01,46,14.70
2006,08,27,01,47,14.70
2006,08,27,01,48,14.60
2006,08,27,01,49,14.60
2006,08,27,01,50,14.60
2006,08,27,01,51,14.60
2006,08,27,01,52,14.60
2006,08,27,01,53,14.60
2006,08,27,01,54,14.50
2006,08,27,01,55,14.50
2006,08,27,01,56,14.50
2006,08,27,01,57,14.50
2006,08,27,01,58,14.50
2006,08,27,01,59,14.50
2006,08,27,02,00,14.50
2006,08,27,02,01,14.50
2006,08,27,02,02,14.50
2006,08,27,02,03,14.50
2006,08,27,02,04,14.50
2006,08,27,02,05,14.60
2006,08,27,02,06,14.60
2006,08,27,02,07,14.60
2006,08,27,02,08,14.70
2006,08,27,02,09,14.70
2006,08,27,02,10,14.80
2006,08,27,02,11,14.80
2006,08,27,02,12,14.80
2006,08,27,02,13,14.80
2006,08,27,02,14,14.80
2006,08,27,02,15,14.80
2006,08,27,02,16,14.80
2006,08,27,02,17,14.90
2006,08,27,02,18,14.90
2006,08,27,02,19,14.90
2006,08,27,02,20,14.80
2006,08,27,02,21,14.80
2006,08,27,02,22,14.80
2006,08,27,02,23,14.80
2006,08,27,02,24,14.80
2006,08,27,02,25,14.80
2006,08,27,02,26,14.70
2006,08,27,02,27,14.70
2006,08,27,02,28,14.60
2006,08,27,02,29,14.60
2006,08,27,02,30,14.60
2006,08,27,02,31,14.50
2006,08,27,02,32,14.50
2006,08,27,02,33,14.50
2006,08,27,02,34,14.40
2006,08,27,02,35,14.40
2006,08,27,02,36,14.40
2006,08,27,02,37,14.30
2006,08,27,02,38,14.30
2006,08,27,02,39,14.30
2006,08,27,02,40,14.20
2006,08,27,02,41,14.20
2006,08,27,02,42,14.20
2006,08,27,02,43,14.20
2006,08,27,02,44,14.20
2006,08,27,02,45,14.10
2006,08,27,02,46,14.10
2006,08,27,02,47,14.10
2006,08,27,02,48,14.10
2006,08,27,02,49,14.10
2006,08,27,02,50,14.00
2006,08,27,02,51,14.00
2006,08,27,02,52,14.00
2006,08,27,02,53,14.00
2006,08,27,02,54,14.00
2006,08,27,02,55,14.00
2006,08,27,02,56,14.00
2006,08,27,02,57,14.00
2006,08,27,02,58,14.00
2006,08,27,02,59,14.00
2006,08,27,03,00,14.00
2006,08,27,03,01,14.00
2006,08,27,03,02,14.00
2006,08,27,03,03,14.00
2006,08,27,03,04,14.00
2006,08,27,03,05,14.00
2006,08,27,03,06,14.00
2006,08,27,03,07,14.00
2006,08,27,03,08,14.00
2006,08,27,03,09,14.00
2006,08,27,03,10,14.00
2006,08,27,03,11,14.00
2006,08,27,03,12,14.10
2006,08,27,03,13,14.10
2006,08,27,03,14,14.10
2006,08,27,03,15,14.00
2006,08,27,03,16,14.00
2006,08,27,03,17,14.00
2006,08,27,03,18,14.00
2006,08,27,03,19,14.00
2006,08,27,03,20,14.00
2006,08,27,03,21,14.00
2006,08,27,03,22,14.00
2006,08,27,03,23,14.00
2006,08,27,03,24,14.00
2006,08,27,03,25,14.00
2006,08,27,03,26,14.00
2006,08,27,03,27,13.90
2006,08,27,03,28,13.90
2006,08,27,03,29,13.90
2006,08,27,03,30,13.90
2006,08,27,03,31,13.90
2006,08,27,03,32,13.90
2006,08,27,03,33,13.90
2006,08,27,03,34,13.90
2006,08,27,03,35,13.90
2006,08,27,03,36,13.80
2006,08,27,03,37,13.80
2006,08,27,03,38,13.80
2006,08,27,03,39,13.80
2006,08,27,03,40,13.80
2006,08,27,03,41,13.70
2006,08,27,03,42,13.70
2006,08,27,03,43,13.70
2006,08,27,03,44,13.70
2006,08,27,03,45,13.70
2006,08,27,03,46,13.70
2006,08,27,03,47,13.70
2006,08,27,03,48,13.70
2006,08,27,03,49,13.60
2006,08,27,03,50,13.60
2006,08,27,03,51,13.60
2006,08,27,03,52,13.50
2006,08,27,03,53,13.50
2006,08,27,03,54,13.50
2006,08,27,03,55,13.40
2006,08,27,03,56,13.40
2006,08,27,03,57,13.40
2006,08,27,03,58,13.30
2006,08,27,03,59,13.30
2006,08,27,04,00,13.30
2006,08,27,04,01,13.30
2006,08,27,04,02,13.30
2006,08,27,04,03,13.30
2006,08,27,04,04,13.30
2006,08,27,04,05,13.30
2006,08,27,04,06,13.30
2006,08,27,04,07,13.30
2006,08,27,04,08,13.30
2006,08,27,04,09,13.30
2006,08,27,04,10,13.30
2006,08,27,04,11,13.30
2006,08,27,04,12,13.30
2006,08,27,04,13,13.30
2006,08,27,04,14,13.30
2006,08,27,04,15,13.30
2006,08,27,04,16,13.30
2006,08,27,04,17,13.30
2006,08,27,04,18,13.30
2006,08,27,04,19,13.30
2006,08,27,04,20,13.30
2006,08,27,04,21,13.30
2006,08,27,04,22,13.30
2006,08,27,04,23,13.30
2006,08,27,04,24,13.30
2006,08,27,04,25,13.30
2006,08,27,04,26,13.30
2006,08,27,04,27,13.30
2006,08,27,04,28,13.30
2006,08,27,04,29,13.30
2006,08,27,04,30,13.30
2006,08,27,04,31,13.30
2006,08,27,04,32,13.30
2006,08,27,04,33,13.30
2006,08,27,04,34,13.30
2006,08,27,04,35,13.40
2006,08,27,04,36,13.40
2006,08,27,04,37,13.40
2006,08,27,04,38,13.40
2006,08,27,04,39,13.40
2006,08,27,04,40,13.40
2006,08,27,04,41,13.40
2006,08,27,04,42,13.40
2006,08,27,04,43,13.50
2006,08,27,04,44,13.50
2006,08,27,04,45,13.50
2006,08,27,04,46,13.50
2006,08,27,04,47,13.50
2006,08,27,04,48,13.50
2006,08,27,04,49,13.50
2006,08,27,04,50,13.60
2006,08,27,04,51,13.60
2006,08,27,04,52,13.60
2006,08,27,04,53,13.60
2006,08,27,04,54,13.70
2006,08,27,04,55,13.70
2006,08,27,04,56,13.70
2006,08,27,04,57,13.70
2006,08,27,04,58,13.70
2006,08,27,04,59,13.70
2006,08,27,05,00,13.70
2006,08,27,05,01,13.70
2006,08,27,05,02,13.70
2006,08,27,05,03,13.70
2006,08,27,05,04,13.70
2006,08,27,05,05,13.70
2006,08,27,05,06,13.70
2006,08,27,05,07,13.70
2006,08,27,05,08,13.70
2006,08,27,05,09,13.70
2006,08,27,05,10,13.70
2006,08,27,05,11,13.70
2006,08,27,05,12,13.70
2006,08,27,05,13,13.70
2006,08,27,05,14,13.70
2006,08,27,05,15,13.70
2006,08,27,05,16,13.70
2006,08,27,05,17,13.70
2006,08,27,05,18,13.70
2006,08,27,05,19,13.70
2006,08,27,05,20,13.70
2006,08,27,05,21,13.70
2006,08,27,05,22,13.70
2006,08,27,05,23,13.70
2006,08,27,05,24,13.70
2006,08,27,05,25,13.70
2006,08,27,05,26,13.70
2006,08,27,05,27,13.70
2006,08,27,05,28,13.70
2006,08,27,05,29,13.70
2006,08,27,05,30,13.70
2006,08,27,05,31,13.70
2006,08,27,05,32,13.70
2006,08,27,05,33,13.70
2006,08,27,05,34,13.70
2006,08,27,05,35,13.60
2006,08,27,05,36,13.60
2006,08,27,05,37,13.60
2006,08,27,05,38,13.60
2006,08,27,05,39,13.60
2006,08,27,05,40,13.60
2006,08,27,05,41,13.60
2006,08,27,05,42,13.60
2006,08,27,05,43,13.60
2006,08,27,05,44,13.60
2006,08,27,05,45,13.60
2006,08,27,05,46,13.60
2006,08,27,05,47,13.60
2006,08,27,05,48,13.50
2006,08,27,05,49,13.50
2006,08,27,05,50,13.50
2006,08,27,05,51,13.50
2006,08,27,05,52,13.50
2006,08,27,05,53,13.40
2006,08,27,05,54,13.40
2006,08,27,05,55,13.40
2006,08,27,05,56,13.40
2006,08,27,05,57,13.40
2006,08,27,05,58,13.40
2006,08,27,05,59,13.40
2006,08,27,06,00,13.40
2006,08,27,06,01,13.40
2006,08,27,06,02,13.30
2006,08,27,06,03,13.30
2006,08,27,06,04,13.30
2006,08,27,06,05,13.30
2006,08,27,06,06,13.30
2006,08,27,06,07,13.30
2006,08,27,06,08,13.30
2006,08,27,06,09,13.30
2006,08,27,06,10,13.30
2006,08,27,06,11,13.30
2006,08,27,06,12,13.30
2006,08,27,06,13,13.30
2006,08,27,06,14,13.30
2006,08,27,06,15,13.30
2006,08,27,06,16,13.30
2006,08,27,06,17,13.30
2006,08,27,06,18,13.30
2006,08,27,06,19,13.30
2006,08,27,06,20,13.30
2006,08,27,06,21,13.30
2006,08,27,06,22,13.30
2006,08,27,06,23,13.30
2006,08,27,06,24,13.30
2006,08,27,06,25,13.30
2006,08,27,06,26,13.30
2006,08,27,06,27,13.30
2006,08,27,06,28,13.30
2006,08,27,06,29,13.30
2006,08,27,06,30,13.30
2006,08,27,06,31,13.30
2006,08,27,06,32,13.30
2006,08,27,06,33,13.30
2006,08,27,06,34,13.30
2006,08,27,06,35,13.30
2006,08,27,06,36,13.30
2006,08,27,06,37,13.30
2006,08,27,06,38,13.30
2006,08,27,06,39,13.30
2006,08,27,06,40,13.30
2006,08,27,06,41,13.30
2006,08,27,06,42,13.30
2006,08,27,06,43,13.30
2006,08,27,06,44,13.30
2006,08,27,06,45,13.40
2006,08,27,06,46,13.40
2006,08,27,06,47,13.40
2006,08,27,06,48,13.40
2006,08,27,06,49,13.40
2006,08,27,06,50,13.40
2006,08,27,06,51,13.40
2006,08,27,06,52,13.40
2006,08,27,06,53,13.40
2006,08,27,06,54,13.40
2006,08,27,06,55,13.50
2006,08,27,06,56,13.50
2006,08,27,06,57,13.50
2006,08,27,06,58,13.50
2006,08,27,06,59,13.50
2006,08,27,07,00,13.50
2006,08,27,07,01,13.50
2006,08,27,07,02,13.50
2006,08,27,07,03,13.50
2006,08,27,07,04,13.50
2006,08,27,07,05,13.50
2006,08,27,07,06,13.60
2006,08,27,07,07,13.60
2006,08,27,07,08,13.60
2006,08,27,07,09,13.60
2006,08,27,07,10,13.60
2006,08,27,07,11,13.70
2006,08,27,07,12,13.70
2006,08,27,07,13,13.70
2006,08,27,07,14,13.70
2006,08,27,07,15,13.70
2006,08,27,07,16,13.70
2006,08,27,07,17,13.80
2006,08,27,07,18,13.80
2006,08,27,07,19,13.80
2006,08,27,07,20,13.90
2006,08,27,07,21,13.90
2006,08,27,07,22,13.90
2006,08,27,07,23,14.00
2006,08,27,07,24,14.00
2006,08,27,07,25,14.00
2006,08,27,07,26,14.10
2006,08,27,07,27,14.10
2006,08,27,07,28,14.20
2006,08,27,07,29,14.20
2006,08,27,07,30,14.20
2006,08,27,07,31,14.20
2006,08,27,07,32,14.30
2006,08,27,07,33,14.30
2006,08,27,07,34,14.30
2006,08,27,07,35,14.40
2006,08,27,07,36,14.40
2006,08,27,07,37,14.50
2006,08,27,07,38,14.60
2006,08,27,07,39,14.60
2006,08,27,07,40,14.70
2006,08,27,07,41,14.80
2006,08,27,07,42,14.80
2006,08,27,07,43,14.80
2006,08,27,07,44,14.80
2006,08,27,07,45,14.90
2006,08,27,07,46,15.00
2006,08,27,07,47,15.10
2006,08,27,07,48,15.30
2006,08,27,07,49,15.30
2006,08,27,07,50,15.30
2006,08,27,07,51,15.30
2006,08,27,07,52,15.30
2006,08,27,07,53,15.30
2006,08,27,07,54,15.30
2006,08,27,07,55,15.30
2006,08,27,07,56,15.30
2006,08,27,07,57,15.30
2006,08,27,07,58,15.30
2006,08,27,07,59,15.30
2006,08,27,08,00,15.30
2006,08,27,08,01,15.30
2006,08,27,08,02,15.30
2006,08,27,08,03,15.30
2006,08,27,08,04,15.30
2006,08,27,08,05,15.40
2006,08,27,08,06,15.40
2006,08,27,08,07,15.40
2006,08,27,08,08,15.50
2006,08,27,08,09,15.50
2006,08,27,08,10,15.60
2006,08,27,08,11,15.60
2006,08,27,08,12,15.70
2006,08,27,08,13,15.70
2006,08,27,08,14,15.80
2006,08,27,08,15,15.80
2006,08,27,08,16,15.80
2006,08,27,08,17,15.80
2006,08,27,08,18,15.80
2006,08,27,08,19,15.90
2006,08,27,08,20,15.90
2006,08,27,08,21,16.00
2006,08,27,08,22,16.10
2006,08,27,08,23,16.10
2006,08,27,08,24,16.10
2006,08,27,08,25,16.20
2006,08,27,08,26,16.30
2006,08,27,08,27,16.30
2006,08,27,08,28,16.40
2006,08,27,08,29,16.40
2006,08,27,08,30,16.50
2006,08,27,08,31,16.60
2006,08,27,08,32,16.70
2006,08,27,08,33,16.80
2006,08,27,08,34,16.80
2006,08,27,08,35,17.00
2006,08,27,08,36,17.00
2006,08,27,08,37,17.10
2006,08,27,08,38,17.20
2006,08,27,08,39,17.30
2006,08,27,08,40,17.40
2006,08,27,08,41,17.50
2006,08,27,08,42,17.70
2006,08,27,08,43,17.80
2006,08,27,08,44,17.80
2006,08,27,08,45,17.90
2006,08,27,08,46,17.90
2006,08,27,08,47,17.90
2006,08,27,08,48,18.00
2006,08,27,08,49,18.20
2006,08,27,08,50,18.30
2006,08,27,08,51,18.40
2006,08,27,08,52,18.50
2006,08,27,08,53,18.60
2006,08,27,08,54,18.60
2006,08,27,08,55,18.70
2006,08,27,08,56,18.70
2006,08,27,08,57,18.80
2006,08,27,08,58,18.90
2006,08,27,08,59,18.90
2006,08,27,09,00,18.90
2006,08,27,09,01,18.90
2006,08,27,09,02,18.90
2006,08,27,09,03,18.90
2006,08,27,09,04,18.90
2006,08,27,09,05,19.00
2006,08,27,09,06,19.10
2006,08,27,09,07,19.10
2006,08,27,09,08,19.10
2006,08,27,09,09,19.00
2006,08,27,09,10,18.90
2006,08,27,09,11,18.90
2006,08,27,09,12,18.90
2006,08,27,09,13,18.90
2006,08,27,09,14,18.90
2006,08,27,09,15,18.90
2006,08,27,09,16,18.90
2006,08,27,09,17,18.90
2006,08,27,09,18,18.90
2006,08,27,09,19,18.90
2006,08,27,09,20,18.90
2006,08,27,09,21,19.00
2006,08,27,09,22,19.10
2006,08,27,09,23,19.10
2006,08,27,09,24,19.10
2006,08,27,09,25,19.20
2006,08,27,09,26,19.20
2006,08,27,09,27,19.30
2006,08,27,09,28,19.30
2006,08,27,09,29,19.40
2006,08,27,09,30,19.50
2006,08,27,09,31,19.60
2006,08,27,09,32,19.60
2006,08,27,09,33,19.70
2006,08,27,09,34,19.80
2006,08,27,09,35,19.80
2006,08,27,09,36,19.80
2006,08,27,09,37,19.80
2006,08,27,09,38,19.80
2006,08,27,09,39,19.80
2006,08,27,09,40,19.80
2006,08,27,09,41,19.70
2006,08,27,09,42,19.70
2006,08,27,09,43,19.70
2006,08,27,09,44,19.70
2006,08,27,09,45,19.70
2006,08,27,09,46,19.80
2006,08,27,09,47,19.90
2006,08,27,09,48,19.90
2006,08,27,09,49,19.90
2006,08,27,09,50,20.10
2006,08,27,09,51,20.10
2006,08,27,09,52,20.20
2006,08,27,09,53,20.20
2006,08,27,09,54,20.30
2006,08,27,09,55,20.40
2006,08,27,09,56,20.50
2006,08,27,09,57,20.50
2006,08,27,09,58,20.60
2006,08,27,09,59,20.70
2006,08,27,10,00,20.70
2006,08,27,10,01,20.80
2006,08,27,10,02,20.90
2006,08,27,10,03,20.90
2006,08,27,10,04,20.80
2006,08,27,10,05,20.70
2006,08,27,10,06,20.70
2006,08,27,10,07,20.60
2006,08,27,10,08,20.50
2006,08,27,10,09,20.50
2006,08,27,10,10,20.50
2006,08,27,10,11,20.40
2006,08,27,10,12,20.40
2006,08,27,10,13,20.50
2006,08,27,10,14,20.50
2006,08,27,10,15,20.40
2006,08,27,10,16,20.30
2006,08,27,10,17,20.20
2006,08,27,10,18,20.20
2006,08,27,10,19,20.20
2006,08,27,10,20,20.30
2006,08,27,10,21,20.30
2006,08,27,10,22,20.40
2006,08,27,10,23,20.40
2006,08,27,10,24,20.50
2006,08,27,10,25,20.50
2006,08,27,10,26,20.40
2006,08,27,10,27,20.40
2006,08,27,10,28,20.50
2006,08,27,10,29,20.50
2006,08,27,10,30,20.50
2006,08,27,10,31,20.40
2006,08,27,10,32,20.30
2006,08,27,10,33,20.30
2006,08,27,10,34,20.20
2006,08,27,10,35,20.10
2006,08,27,10,36,20.00
2006,08,27,10,37,19.90
2006,08,27,10,38,19.90
2006,08,27,10,39,19.90
2006,08,27,10,40,20.00
2006,08,27,10,41,20.10
2006,08,27,10,42,20.20
2006,08,27,10,43,20.20
2006,08,27,10,44,20.30
2006,08,27,10,45,20.30
2006,08,27,10,46,20.40
2006,08,27,10,47,20.50
2006,08,27,10,48,20.60
2006,08,27,10,49,20.70
2006,08,27,10,50,20.70
2006,08,27,10,51,20.70
2006,08,27,10,52,20.70
2006,08,27,10,53,20.70
2006,08,27,10,54,20.80
2006,08,27,10,55,20.80
2006,08,27,10,56,20.90
2006,08,27,10,57,21.00
2006,08,27,10,58,21.00
2006,08,27,10,59,21.10
2006,08,27,11,00,21.10
2006,08,27,11,01,21.20
2006,08,27,11,02,21.20
2006,08,27,11,03,21.20
2006,08,27,11,04,21.20
2006,08,27,11,05,21.20
2006,08,27,11,06,21.20
2006,08,27,11,07,21.20
2006,08,27,11,08,21.20
2006,08,27,11,09,21.10
2006,08,27,11,10,21.00
2006,08,27,11,11,20.90
2006,08,27,11,12,20.70
2006,08,27,11,13,20.50
2006,08,27,11,14,20.30
2006,08,27,11,15,20.20
2006,08,27,11,16,20.10
2006,08,27,11,17,20.00
2006,08,27,11,18,19.90
2006,08,27,11,19,19.70
2006,08,27,11,20,19.60
2006,08,27,11,21,19.60
2006,08,27,11,22,19.50
2006,08,27,11,23,19.40
2006,08,27,11,24,19.30
2006,08,27,11,25,19.30
2006,08,27,11,26,19.30
2006,08,27,11,27,19.40
2006,08,27,11,28,19.50
2006,08,27,11,29,19.50
2006,08,27,11,30,19.60
2006,08,27,11,31,19.60
2006,08,27,11,32,19.50
2006,08,27,11,33,19.50
2006,08,27,11,34,19.40
2006,08,27,11,35,19.30
2006,08,27,11,36,19.40
2006,08,27,11,37,19.40
2006,08,27,11,38,19.40
2006,08,27,11,39,19.30
2006,08,27,11,40,19.30
2006,08,27,11,41,19.20
2006,08,27,11,42,19.10
2006,08,27,11,43,19.10
2006,08,27,11,44,19.20
2006,08,27,11,45,19.30
2006,08,27,11,46,19.30
2006,08,27,11,47,19.40
2006,08,27,11,48,19.30
2006,08,27,11,49,19.30
2006,08,27,11,50,19.30
2006,08,27,11,51,19.30
2006,08,27,11,52,19.40
2006,08,27,11,53,19.40
2006,08,27,11,54,19.40
2006,08,27,11,55,19.50
2006,08,27,11,56,19.50
2006,08,27,11,57,19.50
2006,08,27,11,58,19.50
2006,08,27,11,59,19.60
2006,08,27,12,00,19.70
2006,08,27,12,01,19.80
2006,08,27,12,02,19.90
2006,08,27,12,03,20.10
2006,08,27,12,04,20.20
2006,08,27,12,05,20.40
2006,08,27,12,06,20.40
2006,08,27,12,07,20.30
2006,08,27,12,08,20.30
2006,08,27,12,09,20.30
2006,08,27,12,10,20.20
2006,08,27,12,11,20.20
2006,08,27,12,12,20.10
2006,08,27,12,13,20.00
2006,08,27,12,14,19.90
2006,08,27,12,15,19.90
2006,08,27,12,16,19.90
2006,08,27,12,17,19.90
2006,08,27,12,18,19.90
2006,08,27,12,19,19.80
2006,08,27,12,20,19.70
2006,08,27,12,21,19.70
2006,08,27,12,22,19.70
2006,08,27,12,23,19.70
2006,08,27,12,24,19.80
2006,08,27,12,25,19.80
2006,08,27,12,26,19.90
2006,08,27,12,27,19.90
2006,08,27,12,28,19.80
2006,08,27,12,29,19.70
2006,08,27,12,30,19.70
2006,08,27,12,31,19.60
2006,08,27,12,32,19.60
2006,08,27,12,33,19.60
2006,08,27,12,34,19.60
2006,08,27,12,35,19.60
2006,08,27,12,36,19.60
2006,08,27,12,37,19.70
2006,08,27,12,38,19.70
2006,08,27,12,39,19.70
2006,08,27,12,40,19.80
2006,08,27,12,41,19.90
2006,08,27,12,42,19.90
2006,08,27,12,43,19.90
2006,08,27,12,44,19.90
2006,08,27,12,45,19.90
2006,08,27,12,46,20.00
2006,08,27,12,47,20.10
2006,08,27,12,48,20.20
2006,08,27,12,49,20.20
2006,08,27,12,50,20.10
2006,08,27,12,51,20.10
2006,08,27,12,52,19.90
2006,08,27,12,53,19.90
2006,08,27,12,54,19.90
2006,08,27,12,55,19.90
2006,08,27,12,56,19.90
2006,08,27,12,57,19.80
2006,08,27,12,58,19.70
2006,08,27,12,59,19.70
2006,08,27,13,00,19.80
2006,08,27,13,01,19.80
2006,08,27,13,02,19.90
2006,08,27,13,03,19.90
2006,08,27,13,04,20.00
2006,08,27,13,05,20.10
2006,08,27,13,06,20.20
2006,08,27,13,07,20.20
2006,08,27,13,08,20.20
2006,08,27,13,09,20.20
2006,08,27,13,10,20.30
2006,08,27,13,11,20.40
2006,08,27,13,12,20.50
2006,08,27,13,13,20.50
2006,08,27,13,14,20.60
2006,08,27,13,15,20.60
2006,08,27,13,16,20.70
2006,08,27,13,17,20.70
2006,08,27,13,18,20.70
2006,08,27,13,19,20.70
2006,08,27,13,20,20.70
2006,08,27,13,21,20.60
2006,08,27,13,22,20.60
2006,08,27,13,23,20.70
2006,08,27,13,24,20.70
2006,08,27,13,25,20.80
2006,08,27,13,26,20.90
2006,08,27,13,27,20.90
2006,08,27,13,28,21.00
2006,08,27,13,29,21.00
2006,08,27,13,30,20.90
2006,08,27,13,31,20.80
2006,08,27,13,32,20.80
2006,08,27,13,33,20.90
2006,08,27,13,34,20.90
2006,08,27,13,35,20.90
2006,08,27,13,36,20.90
2006,08,27,13,37,21.00
2006,08,27,13,38,20.90
2006,08,27,13,39,20.90
2006,08,27,13,40,20.90
2006,08,27,13,41,20.90
2006,08,27,13,42,20.90
2006,08,27,13,43,21.00
2006,08,27,13,44,21.00
2006,08,27,13,45,21.00
2006,08,27,13,46,21.00
2006,08,27,13,47,21.00
2006,08,27,13,48,20.90
2006,08,27,13,49,21.00
2006,08,27,13,50,21.00
2006,08,27,13,51,21.00
2006,08,27,13,52,21.00
2006,08,27,13,53,21.00
2006,08,27,13,54,21.10
2006,08,27,13,55,21.00
2006,08,27,13,56,21.00
2006,08,27,13,57,21.00
2006,08,27,13,58,21.00
2006,08,27,13,59,21.00
2006,08,27,14,00,21.00
2006,08,27,14,01,21.00
2006,08,27,14,02,21.00
2006,08,27,14,03,20.90
2006,08,27,14,04,20.90
2006,08,27,14,05,20.80
2006,08,27,14,06,20.70
2006,08,27,14,07,20.70
2006,08,27,14,08,20.60
2006,08,27,14,09,20.60
2006,08,27,14,10,20.60
2006,08,27,14,11,20.60
2006,08,27,14,12,20.70
2006,08,27,14,13,20.70
2006,08,27,14,14,20.70
2006,08,27,14,15,20.70
2006,08,27,14,16,20.60
2006,08,27,14,17,20.60
2006,08,27,14,18,20.60
2006,08,27,14,19,20.70
2006,08,27,14,20,20.60
2006,08,27,14,21,20.60
2006,08,27,14,22,20.60
2006,08,27,14,23,20.60
2006,08,27,14,24,20.60
2006,08,27,14,25,20.60
2006,08,27,14,26,20.60
2006,08,27,14,27,20.80
2006,08,27,14,28,20.90
2006,08,27,14,29,21.00
2006,08,27,14,30,21.10
2006,08,27,14,31,21.20
2006,08,27,14,32,21.30
2006,08,27,14,33,21.40
2006,08,27,14,34,21.50
2006,08,27,14,35,21.60
2006,08,27,14,36,21.80
2006,08,27,14,37,21.90
2006,08,27,14,38,22.00
2006,08,27,14,39,22.10
2006,08,27,14,40,22.20
2006,08,27,14,41,22.30
2006,08,27,14,42,22.50
2006,08,27,14,43,22.60
2006,08,27,14,44,22.70
2006,08,27,14,45,22.80
2006,08,27,14,46,22.90
2006,08,27,14,47,22.90
2006,08,27,14,48,22.90
2006,08,27,14,49,22.80
2006,08,27,14,50,22.80
2006,08,27,14,51,22.80
2006,08,27,14,52,22.70
2006,08,27,14,53,22.70
2006,08,27,14,54,22.60
2006,08,27,14,55,22.50
2006,08,27,14,56,22.40
2006,08,27,14,57,22.30
2006,08,27,14,58,22.30
2006,08,27,14,59,22.20
2006,08,27,15,00,22.20
2006,08,27,15,01,22.20
2006,08,27,15,02,22.20
2006,08,27,15,03,22.20
2006,08,27,15,04,22.20
2006,08,27,15,05,22.20
2006,08,27,15,06,22.30
2006,08,27,15,07,22.40
2006,08,27,15,08,22.40
2006,08,27,15,09,22.50
2006,08,27,15,10,22.60
2006,08,27,15,11,22.50
2006,08,27,15,12,22.40
2006,08,27,15,13,22.30
2006,08,27,15,14,22.20
2006,08,27,15,15,22.10
2006,08,27,15,16,22.00
2006,08,27,15,17,22.00
2006,08,27,15,18,21.80
2006,08,27,15,19,21.70
2006,08,27,15,20,21.70
2006,08,27,15,21,21.60
2006,08,27,15,22,21.60
2006,08,27,15,23,21.60
2006,08,27,15,24,21.60
2006,08,27,15,25,21.60
2006,08,27,15,26,21.60
2006,08,27,15,27,21.60
2006,08,27,15,28,21.60
2006,08,27,15,29,21.60
2006,08,27,15,30,21.70
2006,08,27,15,31,21.70
2006,08,27,15,32,21.60
2006,08,27,15,33,21.60
2006,08,27,15,34,21.50
2006,08,27,15,35,21.40
2006,08,27,15,36,21.40
2006,08,27,15,37,21.30
2006,08,27,15,38,21.30
2006,08,27,15,39,21.30
2006,08,27,15,40,21.30
2006,08,27,15,41,21.30
2006,08,27,15,42,21.30
2006,08,27,15,43,21.30
2006,08,27,15,44,21.30
2006,08,27,15,45,21.30
2006,08,27,15,46,21.30
2006,08,27,15,47,21.40
2006,08,27,15,48,21.40
2006,08,27,15,49,21.40
2006,08,27,15,50,21.40
2006,08,27,15,51,21.50
2006,08,27,15,52,21.60
2006,08,27,15,53,21.60
2006,08,27,15,54,21.70
2006,08,27,15,55,21.70
2006,08,27,15,56,21.80
2006,08,27,15,57,21.80
2006,08,27,15,58,21.90
2006,08,27,15,59,22.00
2006,08,27,16,00,22.00
2006,08,27,16,01,22.10
2006,08,27,16,02,22.10
2006,08,27,16,03,22.20
2006,08,27,16,04,22.20
2006,08,27,16,05,22.20
2006,08,27,16,06,22.30
2006,08,27,16,07,22.30
2006,08,27,16,08,22.30
2006,08,27,16,09,22.40
2006,08,27,16,10,22.40
2006,08,27,16,11,22.30
2006,08,27,16,12,22.40
2006,08,27,16,13,22.40
2006,08,27,16,14,22.50
2006,08,27,16,15,22.50
2006,08,27,16,16,22.50
2006,08,27,16,17,22.60
2006,08,27,16,18,22.60
2006,08,27,16,19,22.60
2006,08,27,16,20,22.70
2006,08,27,16,21,22.80
2006,08,27,16,22,22.80
2006,08,27,16,23,22.90
2006,08,27,16,24,22.90
2006,08,27,16,25,22.90
2006,08,27,16,26,22.90
2006,08,27,16,27,22.90
2006,08,27,16,28,22.90
2006,08,27,16,29,22.90
2006,08,27,16,30,22.80
2006,08,27,16,31,22.80
2006,08,27,16,32,22.70
2006,08,27,16,33,22.60
2006,08,27,16,34,22.60
2006,08,27,16,35,22.60
2006,08,27,16,36,22.60
2006,08,27,16,37,22.50
2006,08,27,16,38,22.50
2006,08,27,16,39,22.50
2006,08,27,16,40,22.40
2006,08,27,16,41,22.30
2006,08,27,16,42,22.30
2006,08,27,16,43,22.30
2006,08,27,16,44,22.30
2006,08,27,16,45,22.30
2006,08,27,16,46,22.20
2006,08,27,16,47,22.20
2006,08,27,16,48,22.20
2006,08,27,16,49,22.10
2006,08,27,16,50,22.10
2006,08,27,16,51,22.10
2006,08,27,16,52,22.00
2006,08,27,16,53,22.00
2006,08,27,16,54,22.00
2006,08,27,16,55,21.90
2006,08,27,16,56,21.90
2006,08,27,16,57,21.90
2006,08,27,16,58,21.80
2006,08,27,16,59,21.70
2006,08,27,17,00,21.70
2006,08,27,17,01,21.60
2006,08,27,17,02,21.60
2006,08,27,17,03,21.50
2006,08,27,17,04,21.40
2006,08,27,17,05,21.40
2006,08,27,17,06,21.30
2006,08,27,17,07,21.30
2006,08,27,17,08,21.30
2006,08,27,17,09,21.40
2006,08,27,17,10,21.40
2006,08,27,17,11,21.40
2006,08,27,17,12,21.40
2006,08,27,17,13,21.50
2006,08,27,17,14,21.60
2006,08,27,17,15,21.70
2006,08,27,17,16,21.80
2006,08,27,17,17,22.00
2006,08,27,17,18,22.00
2006,08,27,17,19,22.10